Flag for Norway Weather past 2 weeks in Nøtterøy, Norway

Now
59 °F

Fog.


Feels Like: 59 °F
Forecast: 57 / 73 °F
Wind: 5 mph from Northeast

Location: Torp

Current Time: Jul 4, 2015 at 6:35:52 AM

Latest Report: Jul 4, 2015 at 5:50 AM


Visibility: 0 mi

Pressure: 30.18 "Hg

Humidity: 100%

Dew point: 59 °F

Location of NøtterøyLocation

Historic Weather in Nøtterøy — Graph

°F

Nøtterøy temperature yesterday

Maximum temperature yesterday: 70 °F (at 12:50 PM)
Minimum temperature yesterday: 57 °F (at 3:50 AM)
Average temperature yesterday: 64 °F

Past Weeks' High & Low Weather Summary

 TemperatureHumidityPressure
High73 °F (Jul 1, 2:50 PM)100% (Jun 21, 5:50 AM)30.36 "Hg (Jun 21, 5:50 AM)
Low46 °F (Jun 25, 3:20 AM)38% (Jun 20, 1:50 PM)29.65 "Hg (Jun 22, 6:50 PM)
Average60 °F72%29.95 "Hg
* Reported Jun 19 5:20 AM — Jul 4 5:20 AM, Nøtterøy, Weather by CustomWeather, © 2015

Note: Actual official high and low records may vary slightly from our data, if they occured in-between our weather recording intervals... More about our weather records

Advertising

Nøtterøy weather history for previous 24 hours

 ConditionsComfort  
Time TempWeatherWind HumidityBarometerVisibility
5:20 AM
Sat, Jul 4
59 °FCool.3 mph100%30.18 "Hg0 mi
4:50 AM59 °FFog.3 mph100%30.18 "Hg0 mi
4:20 AM59 °FFog.1 mph100%30.18 "Hg0 mi
3:50 AM59 °FFog.2 mph100%30.18 "Hg0 mi
3:20 AM59 °FFog.2 mph100%30.18 "Hg0 mi
2:50 AM59 °FFog.2 mph100%30.18 "Hg0 mi
2:20 AM59 °FFog.3 mph100%30.18 "Hg0 mi
1:50 AM59 °FFog.6 mph100%30.18 "Hg0 mi
1:20 AM61 °FFog.2 mph94%30.18 "Hg0 mi
12:50 AM61 °FFog.5 mph100%30.18 "Hg0 mi
12:20 AM61 °FFog.7 mph100%30.18 "Hg0 mi
11:50 PM
Fri, Jul 3
61 °FFog.9 mph100%30.18 "Hg1 mi
11:20 PM61 °FFog.7 mph100%30.18 "Hg1 mi
10:50 PM61 °FFog.8 mph100%30.18 "Hg1 mi
10:20 PM61 °FFog.10 mph100%30.18 "Hg2 mi
9:50 PM63 °FFog.13 mph94%30.18 "Hg3 mi
9:20 PM63 °FMixture of precip. Partly sunny.13 mph94%30.21 "Hg5 mi
8:50 PM64 °FMixture of precip. Partly sunny.13 mph88%30.21 "HgN/A
8:20 PM66 °FClear.13 mph83%30.21 "HgN/A
7:50 PM66 °FSunny.14 mph83%30.21 "Hg10 mi
7:20 PM68 °FPassing clouds.10 mph78%30.21 "HgN/A
6:50 PM70 °FSunny.10 mph73%30.21 "Hg10 mi
6:20 PM70 °FSunny.12 mph73%30.21 "Hg10 mi
5:50 PM70 °FSunny.12 mph73%30.21 "Hg10 mi
5:20 PM68 °FSunny.14 mph73%30.21 "Hg10 mi
4:50 PM68 °FSunny.13 mph73%30.24 "Hg10 mi
4:20 PM70 °FSunny.13 mph69%30.24 "Hg10 mi
3:50 PM70 °FSunny.13 mph69%30.24 "Hg10 mi
3:20 PM70 °FSunny.10 mph69%30.24 "Hg10 mi
2:50 PM70 °FSunny.12 mph64%30.24 "Hg10 mi
2:20 PM70 °FPassing clouds.9 mph69%30.24 "HgN/A
1:50 PM68 °FPassing clouds.9 mph69%30.24 "HgN/A
1:20 PM68 °FPassing clouds.8 mph69%30.24 "HgN/A
12:50 PM70 °FPassing clouds.8 mph64%30.24 "HgN/A
12:20 PM68 °FPassing clouds.7 mph73%30.24 "HgN/A
11:50 AM68 °FPassing clouds.6 mph73%30.24 "HgN/A
11:20 AM68 °FPassing clouds.5 mph69%30.24 "HgN/A
10:50 AM66 °FScattered clouds.7 mph78%30.24 "HgN/A
10:20 AM66 °FScattered clouds.7 mph73%30.24 "HgN/A
9:50 AM64 °FPassing clouds.9 mph78%30.27 "HgN/A
9:20 AM64 °FPassing clouds.9 mph78%30.27 "HgN/A
8:50 AM64 °FSunny.8 mph78%30.27 "Hg10 mi
8:20 AM64 °FPassing clouds.9 mph78%30.27 "HgN/A
7:50 AM64 °FSunny.9 mph73%30.27 "Hg10 mi
7:20 AM63 °FSunny.10 mph77%30.27 "Hg10 mi
6:50 AM63 °FSunny.8 mph77%30.27 "Hg10 mi
6:20 AM61 °FSunny.6 mph83%30.27 "Hg10 mi
Weather by CustomWeather, © 2015

See weather overviewHow to use our weather pages